| time (UTC) | temp C | wind direction | speed KPH | gust KPH | rain 1hr cm | rain 24hr cm | rain mn cm | humidity % | barometer mb |
| 20260506182007 | 20 | 232 | 3.2 | 11.3 | 0.00 | 0.00 | 0.00 | 62 | 1018.9 |
| 20260506181507 | 20 | 265 | 3.2 | 8.0 | 0.00 | 0.00 | 0.00 | 64 | 1018.9 |
| 20260506181007 | 19 | 284 | 1.6 | 8.0 | 0.00 | 0.00 | 0.00 | 63 | 1018.9 |
| 20260506180506 | 20 | 272 | 6.4 | 11.3 | 0.00 | 0.00 | 0.00 | 63 | 1018.9 |
| 20260506180007 | 20 | 332 | 4.8 | 11.3 | 0.00 | 0.00 | 0.00 | 63 | 1018.9 |
| 20260506175508 | 19 | 296 | 0.0 | 8.0 | 0.00 | 0.00 | 0.00 | 64 | 1018.9 |
| 20260506175006 | 19 | 128 | 1.6 | 9.7 | 0.00 | 0.00 | 0.00 | 65 | 1018.9 |
| 20260506174506 | 19 | 259 | 1.6 | 9.7 | 0.00 | 0.00 | 0.00 | 65 | 1018.9 |
| 20260506174006 | 18 | 228 | 4.8 | 9.7 | 0.00 | 0.00 | 0.00 | 65 | 1019.0 |
| 20260506173506 | 18 | 230 | 3.2 | 9.7 | 0.00 | 0.00 | 0.00 | 66 | 1019.0 |
| 20260506173007 | 18 | 103 | 4.8 | 8.0 | 0.00 | 0.00 | 0.00 | 66 | 1019.0 |
| 20260506172506 | 18 | 181 | 6.4 | 8.0 | 0.00 | 0.00 | 0.00 | 67 | 1019.1 |
| 20260506172006 | 18 | 207 | 3.2 | 8.0 | 0.00 | 0.00 | 0.00 | 68 | 1019.1 |
| 20260506171505 | 17 | 179 | 6.4 | 9.7 | 0.00 | 0.00 | 0.00 | 69 | 1019.1 |
| 20260506170505 | 17 | 218 | 3.2 | 11.3 | 0.00 | 0.00 | 0.00 | 70 | 1019.1 |
| 20260506165005 | 16 | 249 | 1.6 | 9.7 | 0.00 | 0.00 | 0.00 | 73 | 1019.1 |
| 20260506164005 | 16 | 162 | 8.0 | 9.7 | 0.00 | 0.00 | 0.00 | 73 | 1019.1 |
| 20260506163004 | 15 | 211 | 4.8 | 12.9 | 0.00 | 0.00 | 0.00 | 75 | 1019.1 |
| 20260506162504 | 15 | 262 | 4.8 | 12.9 | 0.00 | 0.00 | 0.00 | 75 | 1019.1 |
| 20260506162003 | 15 | 252 | 4.8 | 8.0 | 0.00 | 0.00 | 0.00 | 76 | 1019.1 |
| 20260506161003 | 15 | 360 | 4.8 | 12.9 | 0.00 | 0.00 | 0.00 | 77 | 1019.1 |
| 20260506160503 | 15 | 271 | 3.2 | 12.9 | 0.00 | 0.00 | 0.00 | 77 | 1019.2 |
| 20260506160003 | 15 | 258 | 3.2 | 9.7 | 0.00 | 0.00 | 0.00 | 78 | 1019.2 |
| 20260506155503 | 14 | 219 | 1.6 | 8.0 | 0.00 | 0.00 | 0.00 | 78 | 1019.2 |
| 20260506155009 | 14 | 242 | 1.6 | 6.4 | 0.00 | 0.00 | 0.00 | 79 | 1019.3 |
| 20260506154002 | 13 | 142 | 0.0 | 11.3 | 0.00 | 0.00 | 0.00 | 80 | 1019.2 |
| 20260506153503 | 13 | 360 | 4.8 | 11.3 | 0.00 | 0.00 | 0.00 | 80 | 1019.2 |
| 20260506153002 | 13 | 241 | 0.0 | 8.0 | 0.00 | 0.00 | 0.00 | 80 | 1019.3 |
| 20260506152003 | 13 | 192 | 1.6 | 9.7 | 0.00 | 0.00 | 0.00 | 81 | 1019.2 |
| 20260506151502 | 13 | 193 | 3.2 | 9.7 | 0.00 | 0.00 | 0.00 | 82 | 1019.2 |
| 20260506151002 | 13 | 142 | 1.6 | 11.3 | 0.00 | 0.00 | 0.00 | 82 | 1019.3 |
| 20260506150002 | 13 | 195 | 3.2 | 9.7 | 0.00 | 0.00 | 0.00 | 82 | 1019.2 |
| 20260506145501 | 13 | 174 | 3.2 | 9.7 | 0.00 | 0.00 | 0.00 | 83 | 1019.2 |
| 20260506145001 | 13 | 169 | 1.6 | 8.0 | 0.00 | 0.00 | 0.00 | 83 | 1019.1 |
| 20260506144501 | 13 | 159 | 1.6 | 8.0 | 0.00 | 0.00 | 0.00 | 83 | 1019.2 |
| 20260506144002 | 12 | 163 | 3.2 | 6.4 | 0.00 | 0.00 | 0.00 | 83 | 1019.1 |
| 20260506143500 | 12 | 179 | 1.6 | 6.4 | 0.00 | 0.00 | 0.00 | 83 | 1019.1 |
| 20260506143000 | 12 | 154 | 4.8 | 6.4 | 0.00 | 0.00 | 0.00 | 83 | 1019.1 |
| 20260506142501 | 12 | 161 | 3.2 | 6.4 | 0.00 | 0.00 | 0.00 | 83 | 1019.0 |
| 20260506142000 | 12 | 161 | 6.4 | 8.0 | 0.00 | 0.00 | 0.00 | 83 | 1018.9 |
| 20260506141500 | 12 | 151 | 1.6 | 8.0 | 0.00 | 0.00 | 0.00 | 83 | 1018.9 |
| 20260506141000 | 12 | 165 | 3.2 | 6.4 | 0.00 | 0.00 | 0.00 | 84 | 1018.8 |
| 20260506140500 | 12 | 178 | 3.2 | 6.4 | 0.00 | 0.00 | 0.00 | 84 | 1018.8 |
| 20260506135459 | 12 | 161 | 0.0 | 8.0 | 0.00 | 0.00 | 0.00 | 84 | 1018.7 |
| 20260506134959 | 12 | 144 | 6.4 | 6.4 | 0.00 | 0.00 | 0.00 | 84 | 1018.6 |
| 20260506134459 | 12 | 165 | 1.6 | 4.8 | 0.00 | 0.00 | 0.00 | 84 | 1018.6 |
| 20260506133002 | 12 | 219 | 0.0 | 0.0 | 0.00 | 0.00 | 0.00 | 83 | 1018.6 |
| 20260506132458 | 12 | 219 | 0.0 | 0.0 | 0.00 | 0.00 | 0.00 | 83 | 1018.5 |
| 20260506131958 | 12 | 219 | 0.0 | 0.0 | 0.00 | 0.00 | 0.00 | 83 | 1018.5 |
| 20260506131459 | 12 | 219 | 0.0 | 0.0 | 0.00 | 0.00 | 0.00 | 83 | 1018.5 |
| 20260506130958 | 12 | 219 | 0.0 | 0.0 | 0.00 | 0.00 | 0.00 | 83 | 1018.3 |
| 20260506130458 | 12 | 220 | 0.0 | 0.0 | 0.00 | 0.00 | 0.00 | 83 | 1018.3 |
| 20260506125958 | 12 | 219 | 0.0 | 0.0 | 0.00 | 0.00 | 0.00 | 83 | 1018.3 |
| 20260506124957 | 12 | 219 | 0.0 | 0.0 | 0.00 | 0.00 | 0.00 | 83 | 1018.3 |
| 20260506124458 | 12 | 213 | 0.0 | 0.0 | 0.00 | 0.00 | 0.00 | 83 | 1018.2 |
| 20260506123457 | 12 | 213 | 0.0 | 0.0 | 0.00 | 0.00 | 0.00 | 83 | 1018.3 |
| 20260506122957 | 12 | 209 | 0.0 | 6.4 | 0.00 | 0.00 | 0.00 | 83 | 1018.3 |
| 20260506121957 | 12 | 159 | 0.0 | 4.8 | 0.00 | 0.00 | 0.00 | 83 | 1018.3 |
| 20260506120956 | 12 | 157 | 0.0 | 3.2 | 0.00 | 0.00 | 0.00 | 83 | 1018.2 |
| 20260506120457 | 12 | 202 | 0.0 | 4.8 | 0.00 | 0.00 | 0.00 | 83 | 1018.2 |
| 20260506115957 | 12 | 205 | 0.0 | 4.8 | 0.00 | 0.00 | 0.00 | 83 | 1018.2 |
| 20260506115456 | 12 | 195 | 0.0 | 8.0 | 0.00 | 0.00 | 0.00 | 83 | 1018.2 |
| 20260506114956 | 12 | 194 | 3.2 | 8.0 | 0.00 | 0.00 | 0.00 | 83 | 1018.1 |
| 20260506114456 | 12 | 195 | 0.0 | 0.0 | 0.00 | 0.00 | 0.00 | 83 | 1018.1 |
| 20260506113958 | 12 | 195 | 0.0 | 0.0 | 0.00 | 0.00 | 0.00 | 83 | 1018.1 |
| 20260506112957 | 12 | 195 | 0.0 | 4.8 | 0.00 | 0.00 | 0.00 | 83 | 1018.1 |
| 20260506111955 | 12 | 195 | 3.2 | 4.8 | 0.00 | 0.00 | 0.00 | 84 | 1017.9 |
| 20260506111456 | 12 | 217 | 0.0 | 4.8 | 0.00 | 0.00 | 0.00 | 84 | 1017.9 |
| 20260506110455 | 12 | 199 | 0.0 | 4.8 | 0.00 | 0.00 | 0.00 | 84 | 1017.8 |
| 20260506105954 | 12 | 219 | 0.0 | 4.8 | 0.00 | 0.00 | 0.00 | 84 | 1017.7 |
| 20260506104954 | 12 | 165 | 0.0 | 0.0 | 0.00 | 0.00 | 0.00 | 84 | 1017.7 |
| 20260506104454 | 12 | 165 | 0.0 | 0.0 | 0.00 | 0.00 | 0.00 | 84 | 1017.7 |
| 20260506103954 | 12 | 165 | 0.0 | 0.0 | 0.00 | 0.00 | 0.00 | 84 | 1017.7 |
| 20260506103455 | 12 | 189 | 0.0 | 4.8 | 0.00 | 0.00 | 0.00 | 84 | 1017.6 |
| 20260506102954 | 12 | 201 | 0.0 | 6.4 | 0.00 | 0.00 | 0.00 | 84 | 1017.5 |
| 20260506101954 | 12 | 178 | 3.2 | 6.4 | 0.00 | 0.00 | 0.00 | 84 | 1017.6 |
| 20260506101457 | 12 | 153 | 0.0 | 6.4 | 0.00 | 0.00 | 0.00 | 84 | 1017.5 |
| 20260506100953 | 12 | 153 | 1.6 | 6.4 | 0.00 | 0.00 | 0.00 | 84 | 1017.4 |
| 20260506100453 | 12 | 213 | 0.0 | 6.4 | 0.00 | 0.00 | 0.00 | 84 | 1017.5 |
| 20260506095453 | 12 | 183 | 1.6 | 6.4 | 0.00 | 0.00 | 0.00 | 84 | 1017.5 |
| 20260506094952 | 12 | 194 | 3.2 | 6.4 | 0.00 | 0.00 | 0.00 | 84 | 1017.5 |
| 20260506093952 | 12 | 191 | 3.2 | 8.0 | 0.00 | 0.00 | 0.00 | 84 | 1017.4 |
| 20260506093453 | 12 | 198 | 1.6 | 8.0 | 0.00 | 0.00 | 0.00 | 84 | 1017.4 |
| 20260506092952 | 12 | 182 | 4.8 | 8.0 | 0.00 | 0.00 | 0.00 | 84 | 1017.4 |
| 20260506092451 | 12 | 194 | 3.2 | 8.0 | 0.00 | 0.00 | 0.00 | 84 | 1017.4 |
| 20260506091951 | 12 | 176 | 1.6 | 8.0 | 0.00 | 0.00 | 0.00 | 84 | 1017.5 |
| 20260506091457 | 12 | 225 | 0.0 | 4.8 | 0.00 | 0.00 | 0.00 | 84 | 1017.5 |
| 20260506090952 | 12 | 184 | 0.0 | 6.4 | 0.00 | 0.00 | 0.00 | 84 | 1017.4 |
| 20260506090451 | 12 | 212 | 1.6 | 6.4 | 0.00 | 0.00 | 0.00 | 84 | 1017.5 |
| 20260506085951 | 12 | 193 | 1.6 | 4.8 | 0.00 | 0.00 | 0.00 | 84 | 1017.5 |
| 20260506085451 | 12 | 220 | 0.0 | 6.4 | 0.00 | 0.03 | 0.00 | 84 | 1017.6 |
| 20260506084952 | 12 | 211 | 0.0 | 8.0 | 0.00 | 0.03 | 0.00 | 84 | 1017.5 |
| 20260506083951 | 12 | 192 | 0.0 | 6.4 | 0.00 | 0.05 | 0.00 | 84 | 1017.6 |
| 20260506082954 | 12 | 195 | 1.6 | 12.9 | 0.00 | 0.05 | 0.00 | 84 | 1017.4 |
| 20260506081949 | 12 | 209 | 0.0 | 11.3 | 0.00 | 0.05 | 0.00 | 84 | 1017.4 |
| 20260506081450 | 12 | 178 | 3.2 | 11.3 | 0.00 | 0.05 | 0.00 | 84 | 1017.4 |
| 20260506080950 | 12 | 205 | 3.2 | 16.1 | 0.00 | 0.08 | 0.00 | 84 | 1017.4 |
| 20260506080450 | 12 | 188 | 3.2 | 16.1 | 0.00 | 0.08 | 0.00 | 84 | 1017.4 |
| 20260506073448 | 12 | 175 | 6.4 | 6.4 | 0.00 | 0.18 | 0.18 | 83 | 1017.2 |
| 20260506072949 | 12 | 161 | 3.2 | 9.7 | 0.00 | 0.18 | 0.18 | 83 | 1017.3 |
| 20260506072449 | 12 | 136 | 4.8 | 9.7 | 0.00 | 0.20 | 0.18 | 83 | 1017.2 |
| 20260506071448 | 12 | 167 | 4.8 | 9.7 | 0.00 | 0.20 | 0.18 | 83 | 1017.1 |
| 20260506071018 | 12 | 167 | 4.8 | 9.7 | 0.00 | 0.23 | 0.18 | 83 | 1017.1 |
| 20260506062517 | 12 | 360 | 4.8 | 9.7 | 0.00 | 0.33 | 0.18 | 81 | 1016.7 |
| 20260506062016 | 12 | 219 | 6.4 | 9.7 | 0.00 | 0.33 | 0.18 | 81 | 1016.7 |
| 20260506061516 | 12 | 214 | 6.4 | 9.7 | 0.00 | 0.33 | 0.18 | 81 | 1016.7 |
| 20260506061016 | 12 | 200 | 3.2 | 9.7 | 0.00 | 0.33 | 0.18 | 81 | 1016.6 |
| 20260506060446 | 12 | 360 | 6.4 | 9.7 | 0.00 | 0.36 | 0.18 | 81 | 1016.5 |
| 20260506051014 | 13 | 360 | 8.0 | 17.7 | 0.00 | 0.41 | 0.18 | 78 | 1016.2 |
| 20260506050514 | 13 | 175 | 11.3 | 19.3 | 0.00 | 0.41 | 0.18 | 78 | 1016.2 |
| 20260506045014 | 13 | 360 | 6.4 | 12.9 | 0.00 | 0.43 | 0.18 | 77 | 1016.1 |
| 20260506044514 | 13 | 360 | 4.8 | 12.9 | 0.00 | 0.43 | 0.18 | 77 | 1016.0 |
| 20260506043514 | 13 | 204 | 4.8 | 16.1 | 0.00 | 0.48 | 0.18 | 77 | 1015.9 |
| 20260506043014 | 13 | 219 | 12.9 | 16.1 | 0.00 | 0.48 | 0.18 | 77 | 1015.9 |
| 20260506041513 | 14 | 184 | 1.6 | 14.5 | 0.00 | 0.51 | 0.18 | 76 | 1015.6 |
| 20260506040512 | 14 | 360 | 8.0 | 14.5 | 0.00 | 0.53 | 0.18 | 77 | 1015.5 |
| 20260506040014 | 14 | 238 | 8.0 | 17.7 | 0.00 | 0.53 | 0.18 | 77 | 1015.4 |
| 20260506035512 | 14 | 236 | 4.8 | 17.7 | 0.00 | 0.53 | 0.18 | 77 | 1015.4 |
| 20260506034513 | 14 | 360 | 6.4 | 14.5 | 0.00 | 0.53 | 0.18 | 77 | 1015.3 |
| 20260506034012 | 14 | 258 | 3.2 | 14.5 | 0.00 | 0.53 | 0.18 | 76 | 1015.3 |
| 20260506033512 | 14 | 168 | 14.5 | 16.1 | 0.00 | 0.53 | 0.18 | 76 | 1015.1 |
| 20260506032011 | 15 | 360 | 8.0 | 17.7 | 0.00 | 0.53 | 0.18 | 75 | 1014.7 |
| 20260506031511 | 15 | 181 | 6.4 | 16.1 | 0.00 | 0.53 | 0.18 | 75 | 1014.7 |
| 20260506030510 | 15 | 360 | 8.0 | 17.7 | 0.00 | 0.53 | 0.18 | 74 | 1014.6 |
| 20260506030010 | 15 | 188 | 9.7 | 14.5 | 0.00 | 0.53 | 0.18 | 74 | 1014.6 |
| 20260506025511 | 15 | 360 | 8.0 | 14.5 | 0.00 | 0.53 | 0.18 | 74 | 1014.5 |
| 20260506025011 | 15 | 241 | 9.7 | 17.7 | 0.00 | 0.53 | 0.18 | 73 | 1014.5 |
| 20260506024010 | 15 | 207 | 12.9 | 19.3 | 0.00 | 0.53 | 0.18 | 73 | 1014.4 |
| 20260506023510 | 15 | 254 | 11.3 | 17.7 | 0.00 | 0.53 | 0.18 | 73 | 1014.3 |
| 20260506022509 | 15 | 191 | 8.0 | 17.7 | 0.00 | 0.53 | 0.18 | 74 | 1014.2 |
| 20260506022010 | 15 | 175 | 6.4 | 25.7 | 0.00 | 0.53 | 0.18 | 73 | 1014.2 |
| 20260506021510 | 15 | 174 | 9.7 | 25.7 | 0.00 | 0.53 | 0.18 | 73 | 1014.2 |
| 20260506020509 | 15 | 204 | 12.9 | 22.5 | 0.00 | 0.53 | 0.18 | 73 | 1014.2 |
| 20260506020009 | 15 | 360 | 14.5 | 22.5 | 0.00 | 0.53 | 0.18 | 73 | 1014.1 |
| 20260506015511 | 16 | 257 | 4.8 | 22.5 | 0.00 | 0.53 | 0.18 | 73 | 1014.0 |
| 20260506015009 | 16 | 167 | 22.5 | 22.5 | 0.00 | 0.53 | 0.18 | 73 | 1014.0 |
| 20260506014508 | 16 | 252 | 6.4 | 17.7 | 0.00 | 0.53 | 0.18 | 73 | 1014.0 |
| 20260506014008 | 16 | 184 | 3.2 | 17.7 | 0.00 | 0.53 | 0.18 | 73 | 1013.9 |
| 20260506013508 | 16 | 196 | 11.3 | 17.7 | 0.00 | 0.53 | 0.18 | 73 | 1013.9 |
| 20260506012508 | 16 | 183 | 9.7 | 19.3 | 0.00 | 0.53 | 0.18 | 73 | 1013.8 |
| 20260506011508 | 16 | 168 | 11.3 | 19.3 | 0.00 | 0.53 | 0.18 | 73 | 1013.8 |
| 20260506011008 | 16 | 188 | 11.3 | 20.9 | 0.00 | 0.53 | 0.18 | 72 | 1013.9 |
| 20260506010507 | 16 | 219 | 12.9 | 20.9 | 0.00 | 0.53 | 0.18 | 72 | 1013.9 |
| 20260506010008 | 16 | 194 | 11.3 | 16.1 | 0.00 | 0.53 | 0.18 | 72 | 1013.9 |
| 20260506005507 | 17 | 360 | 8.0 | 16.1 | 0.00 | 0.53 | 0.18 | 71 | 1013.8 |
| 20260506005007 | 17 | 261 | 12.9 | 19.3 | 0.00 | 0.53 | 0.18 | 71 | 1013.8 |
| 20260506004507 | 17 | 360 | 8.0 | 19.3 | 0.00 | 0.53 | 0.18 | 71 | 1013.8 |
| 20260506004007 | 17 | 239 | 8.0 | 17.7 | 0.00 | 0.53 | 0.18 | 72 | 1013.7 |
| 20260506003507 | 17 | 209 | 6.4 | 20.9 | 0.00 | 0.53 | 0.18 | 71 | 1013.7 |
| 20260506003007 | 17 | 360 | 8.0 | 20.9 | 0.00 | 0.53 | 0.18 | 71 | 1013.7 |
| 20260506002506 | 17 | 226 | 16.1 | 20.9 | 0.00 | 0.53 | 0.18 | 71 | 1013.6 |
| 20260506002006 | 17 | 201 | 11.3 | 20.9 | 0.00 | 0.53 | 0.18 | 71 | 1013.6 |
| 20260506001506 | 17 | 163 | 9.7 | 17.7 | 0.00 | 0.53 | 0.18 | 70 | 1013.6 |
| 20260506001005 | 17 | 186 | 6.4 | 17.7 | 0.00 | 0.53 | 0.18 | 71 | 1013.6 |
| 20260505235505 | 17 | 130 | 8.0 | 17.7 | 0.00 | 0.53 | 0.18 | 71 | 1013.6 |
| 20260505234506 | 17 | 233 | 4.8 | 16.1 | 0.00 | 0.53 | 0.18 | 71 | 1013.7 |
| 20260505234005 | 17 | 134 | 1.6 | 14.5 | 0.00 | 0.53 | 0.18 | 71 | 1013.7 |
| 20260505233004 | 16 | 208 | 9.7 | 17.7 | 0.00 | 0.53 | 0.18 | 73 | 1013.7 |
| 20260505232504 | 16 | 204 | 4.8 | 17.7 | 0.00 | 0.53 | 0.18 | 72 | 1013.7 |
| 20260505232004 | 16 | 173 | 4.8 | 14.5 | 0.00 | 0.53 | 0.18 | 72 | 1013.8 |
| 20260505231504 | 16 | 167 | 12.9 | 16.1 | 0.00 | 0.53 | 0.18 | 72 | 1013.8 |
| 20260505231004 | 16 | 229 | 4.8 | 16.1 | 0.00 | 0.53 | 0.18 | 72 | 1013.8 |
| 20260505230504 | 16 | 188 | 6.4 | 19.3 | 0.00 | 0.53 | 0.18 | 72 | 1013.8 |
| 20260505230004 | 16 | 182 | 4.8 | 19.3 | 0.00 | 0.53 | 0.18 | 72 | 1013.8 |
| 20260505225505 | 16 | 360 | 19.3 | 19.3 | 0.00 | 0.53 | 0.18 | 72 | 1013.7 |
| 20260505224503 | 16 | 211 | 3.2 | 14.5 | 0.00 | 0.53 | 0.18 | 72 | 1013.8 |
| 20260505224003 | 16 | 165 | 6.4 | 14.5 | 0.00 | 0.53 | 0.18 | 72 | 1013.8 |
| 20260505223504 | 16 | 172 | 11.3 | 14.5 | 0.00 | 0.53 | 0.18 | 73 | 1013.8 |
| 20260505223003 | 16 | 175 | 9.7 | 16.1 | 0.00 | 0.53 | 0.18 | 73 | 1013.8 |
| 20260505222503 | 16 | 211 | 6.4 | 17.7 | 0.00 | 0.53 | 0.18 | 73 | 1013.8 |
| 20260505222003 | 16 | 184 | 6.4 | 17.7 | 0.00 | 0.53 | 0.18 | 74 | 1013.8 |
| 20260505221503 | 16 | 159 | 9.7 | 17.7 | 0.00 | 0.53 | 0.18 | 74 | 1013.9 |
| 20260505221002 | 16 | 148 | 3.2 | 16.1 | 0.00 | 0.53 | 0.18 | 75 | 1013.9 |
| 20260505220502 | 16 | 176 | 6.4 | 17.7 | 0.00 | 0.53 | 0.18 | 75 | 1013.9 |
| 20260505215002 | 16 | 192 | 1.6 | 14.5 | 0.00 | 0.53 | 0.18 | 75 | 1014.0 |
| 20260505214003 | 16 | 146 | 12.9 | 16.1 | 0.00 | 0.53 | 0.18 | 74 | 1014.0 |
| 20260505213501 | 16 | 117 | 4.8 | 16.1 | 0.00 | 0.53 | 0.18 | 74 | 1014.1 |
| 20260505212501 | 16 | 169 | 9.7 | 16.1 | 0.00 | 0.53 | 0.18 | 74 | 1014.1 |
| 20260505212000 | 16 | 177 | 8.0 | 16.1 | 0.00 | 0.53 | 0.18 | 74 | 1014.2 |
| 20260505211500 | 16 | 211 | 6.4 | 16.1 | 0.00 | 0.53 | 0.18 | 73 | 1014.2 |
| 20260505211001 | 16 | 155 | 11.3 | 16.1 | 0.00 | 0.53 | 0.18 | 74 | 1014.1 |
| 20260505210504 | 16 | 154 | 11.3 | 12.9 | 0.00 | 0.53 | 0.18 | 74 | 1014.1 |
| 20260505210000 | 16 | 162 | 9.7 | 12.9 | 0.00 | 0.53 | 0.18 | 74 | 1014.1 |
| 20260505205000 | 16 | 146 | 4.8 | 16.1 | 0.00 | 0.53 | 0.18 | 74 | 1014.2 |
| 20260505204500 | 16 | 204 | 8.0 | 14.5 | 0.00 | 0.53 | 0.18 | 74 | 1014.3 |
| 20260505204001 | 16 | 155 | 6.4 | 11.3 | 0.00 | 0.53 | 0.18 | 75 | 1014.2 |
| 20260505203500 | 16 | 155 | 4.8 | 9.7 | 0.00 | 0.53 | 0.18 | 75 | 1014.2 |
| 20260505203000 | 16 | 191 | 6.4 | 8.0 | 0.00 | 0.53 | 0.18 | 75 | 1014.3 |
| 20260505202459 | 16 | 360 | 1.6 | 9.7 | 0.00 | 0.53 | 0.18 | 75 | 1014.3 |
| 20260505201459 | 16 | 207 | 3.2 | 8.0 | 0.00 | 0.53 | 0.18 | 76 | 1014.3 |
| 20260505200959 | 15 | 232 | 3.2 | 9.7 | 0.00 | 0.53 | 0.18 | 76 | 1014.4 |
| 20260505200502 | 15 | 209 | 1.6 | 9.7 | 0.00 | 0.53 | 0.18 | 76 | 1014.4 |
| 20260505195958 | 15 | 142 | 3.2 | 6.4 | 0.00 | 0.53 | 0.18 | 77 | 1014.5 |
| 20260505195459 | 15 | 207 | 1.6 | 9.7 | 0.00 | 0.53 | 0.18 | 77 | 1014.4 |
| 20260505195000 | 15 | 207 | 1.6 | 12.9 | 0.00 | 0.53 | 0.18 | 76 | 1014.4 |
| 20260505193958 | 15 | 178 | 4.8 | 8.0 | 0.00 | 0.53 | 0.18 | 77 | 1014.4 |
| 20260505193458 | 15 | 257 | 3.2 | 8.0 | 0.00 | 0.53 | 0.18 | 77 | 1014.5 |
| 20260505192957 | 15 | 279 | 1.6 | 9.7 | 0.00 | 0.53 | 0.18 | 77 | 1014.5 |
| 20260505192458 | 15 | 247 | 3.2 | 9.7 | 0.00 | 0.53 | 0.18 | 77 | 1014.4 |
| 20260505191457 | 15 | 360 | 3.2 | 12.9 | 0.00 | 0.53 | 0.18 | 76 | 1014.4 |
| 20260505190957 | 15 | 360 | 8.0 | 12.9 | 0.00 | 0.53 | 0.18 | 77 | 1014.4 |
| 20260505190457 | 15 | 222 | 8.0 | 9.7 | 0.00 | 0.53 | 0.18 | 77 | 1014.4 |
| 20260505185456 | 15 | 242 | 3.2 | 11.3 | 0.00 | 0.53 | 0.18 | 78 | 1014.4 |
| 20260505184957 | 15 | 360 | 1.6 | 11.3 | 0.00 | 0.53 | 0.18 | 80 | 1014.4 |
| 20260505184458 | 14 | 213 | 1.6 | 12.9 | 0.00 | 0.53 | 0.18 | 81 | 1014.3 |
| 20260505184000 | 14 | 360 | 3.2 | 14.5 | 0.00 | 0.53 | 0.18 | 80 | 1014.3 |
| 20260505183456 | 14 | 232 | 6.4 | 14.5 | 0.00 | 0.53 | 0.18 | 80 | 1014.4 |
| 20260505182956 | 14 | 360 | 6.4 | 12.9 | 0.00 | 0.53 | 0.18 | 81 | 1014.4 |